Regional Weather Roundup
Issued by NWS State College, PA

Home | Current Version | Previous Version | Text Only | Print | Product List | Glossary Off
Versions: 1 2 3 4 5 6 7 8 9 10 11 12 13 14 15 16 17 18 19 20 21 22 23 24 25 26 27 28 29 30 31 32 33 34 35 36 37 38 39 40 41 42 43 44 45 46 47 48 49 50

000
ASUS41 KCTP 190210
RWRCTP

REGIONAL WEATHER ROUNDUP
NATIONAL WEATHER SERVICE STATE COLLEGE PA
1000 PM EDT FRI AUG 18 2017

Note: "fair" indicates few or no clouds below 12,000 feet with no
significant weather and/or obstructions to visibility.

* = STATION THAT DOES NOT REPORT PRECIPITATION /E.G. RAIN...SNOW...ETC/
    THUNDER OR FOG.

PAZ002>004-007>009-013>016-020>023-029>032-190300-
WESTERN PENNSYLVANIA

CITY           SKY/WX    TMP DP  RH WIND       PRES   REMARKS
ERIE           CLOUDY    74  66  76 W7        29.84R
MEADVILLE      CLOUDY    69  62  78 W6        29.89R
FRANKLIN*      CLEAR     66  59  77 W3        29.90R
NEW CASTLE     FAIR      72  66  81 N3        29.89R
BEAVER COUNTY  NOT AVBL
BUTLER*        MOCLDY    72  63  73 SW5       29.90R
PITTSBURGH INT PTCLDY    74  64  71 SW6       29.89R
PITTSBURGH     CLEAR     74  60  61 SW7       29.89R
INDIANA*       MOCLDY    70  64  83 CALM      29.92R
LATROBE        CLEAR     72  64  78 S6        29.90R
WASHINGTON CO* CLEAR     66  63  88 CALM      29.91R
$$

PAZ004>006-010>012-017>019-024>028-033>037-041-042-045-046-049>053-190300-
CENTRAL PENNSYLVANIA

CITY           SKY/WX    TMP DP  RH WIND       PRES   REMARKS
BRADFORD       MOCLDY    68  62  81 W7        29.90R
DUBOIS         CLEAR     70  60  70 W8        29.90R
CLEARFIELD     PTCLDY    73  61  65 SW5       29.88R
JOHNSTOWN      CLEAR     70  61  73 W5        29.94R
ALTOONA        CLEAR     70  63  78 W6        29.91R
STATE COLLEGE  NOT AVBL
WILLIAMSPORT   CLEAR     75  70  84 NE3       29.80R
SELINSGROVE    PTCLDY    73  73 100 CALM      29.82R
FT INDIANTOWN  PTCLDY    76  76 100 CALM      29.84R
CAPITAL CITY   CLOUDY    78  72  81 CALM      29.83R
HARRISBURG     CLOUDY    76  75  97 SE6       29.82R
YORK           CLOUDY    77  76  96 CALM      29.85R
$$

PAZ038>040-043-044-047-048-054-055-060>062-067>071-190300-
EASTERN PENNSYLVANIA

CITY           SKY/WX    TMP DP  RH WIND       PRES   REMARKS
SCRANTON       PTCLDY    75  71  87 SW3       29.83R
MOUNT POCONO   LGT RAIN  70  70 100 W7        29.88R
ALLENTOWN      CLOUDY    75  72  90 MISG      29.83R
QUAKERTOWN*    CLOUDY    72  72 100 CALM      29.85R
READING        CLOUDY    73  73 100 CALM      29.82R FOG
LANCASTER      CLOUDY    76  75  97 SW3       29.84R
COATESVILLE    CLOUDY    73  73 100 VRB3      29.87R
POTTSTOWN      CLOUDY    72  72 100 NE3       29.85R
BLUE BELL      CLOUDY    72  72 100 CALM      29.85R
DOYLESTOWN     CLOUDY    73  72  96 S6        29.83R
WILLOW GROVE   NOT AVBL
NORTH PHILA    LGT RAIN  76  73  91 SW3       29.83R
PHILADELPHIA   CLOUDY    76  73  91 SW10      29.83R
$$




USA.gov is the U.S. government's official web portal to all federal, state and local government web resources and services.